769  
ASUS44 KSHV 160810  
RWRSHV  
 
WEATHER ROUNDUP FOR THE FOUR STATE AREA  
NATIONAL WEATHER SERVICE SHREVEPORT LA  
300 AM CDT THU AUG 16 2018  
 
NOTE: "FAIR" INDICATES FEW OR NO CLOUDS BELOW 12000 FEET  
WITH NO SIGNIFICANT WEATHER AND/OR S TO VISIBILITY
.  
 
!LAZ001-LAZ014-TXZ097-160900  
SHREVEPORT...MONROE...TEXARKANA RADIOS  
 
CITY SKY/WX TMP DP RH WIND PRES REMARKS
 
SHREVEPORT N/A 81 75 82 SW7 29.98S  
MONROE N/A 78 74 87 S5 30.00S  
NATCHITOCHES N/A 77 75 92 S3 30.01S  
TEXARKANA CLEAR 79 73 82 S7 29.97S  

 
 
!LAZ001-LAZ014-TXZ097-160900  
OTHER LOCATIONS...  
 
CITY SKY/WX TMP DP RH WIND PRES REMARKS
 
DOWNTOWN SHV N/A 83 75 77 S8 29.98S  
BOSSIER CITY N/A 81 74 79 S6 29.97S  
RUSTON N/A 78 72 80 SW3 30.04R  
LITTLE ROCK PTCLDY 78 73 84 SW10 29.94S  
EL DORADO N/A 77 73 87 S5 29.98S  
JACKSON N/A 76 73 91 S7 30.03S  
NEW ORLEANS N/A 80 78 94 S3 30.03S  
HOUSTON N/A 81 77 88 S3 29.99S  
LUFKIN CLOUDY 77 75 93 S6 29.99S  
TYLER CLEAR 81 75 82 S9 29.98R  
DAL FT WORTH CLEAR 83 70 64 S14 29.93R  

 
 
!TXZ136-TXZ165-160900  
TYLER...LUFKIN RADIOS  
 
CITY SKY/WX TMP DP RH WIND PRES REMARKS
 
TYLER CLEAR 81 75 82 S9 29.98R  
GILMER SUNNY 80 74 82 S6 29.98S  
LONGVIEW CLEAR 80 77 90 S7 29.97S  
LUFKIN CLOUDY 77 75 93 S6 29.99S  

 
 
!TXZ136-TXZ165-160900  
OTHER LOCATIONS...  
 
CITY SKY/WX TMP DP RH WIND PRES REMARKS
 
NACOGDOCHES N/A 78 75 90 SE5 N/A  
BEAUMONT N/A 79 75 87 S3 30.00S  
HOUSTON N/A 81 77 88 S3 29.99S  
COLLEGE STN PTCLDY 79 76 90 S7 30.00R  
AUSTIN MOCLDY 80 74 81 S10 29.99S  
DAL FT WORTH CLEAR 83 70 64 S14 29.93R  
TEXARKANA CLEAR 79 73 82 S7 29.97S  
SHREVEPORT N/A 81 75 82 SW7 29.98S  
FORT POLK N/A 77 74 91 CALM 30.01S  
LAKE CHARLES N/A 80 76 87 CALM 30.01S  

 
 
 
CLICK HERE TO GO TO PREVIOUS BULLETINS.

The Nexlab LA Page
The Nexlab TX Page
The Nexlab AR Page
The Nexlab OK Page Main Text Page